ETD360 EDDF-LGAV

Flight info

Callsign ETD360
Flight time 1h 59m
Altitude 37000
Route CINDY8S/18 CINDY Z74 LAMPU DCT NOMBO Y161 MAH DCT VAVOR DCT RADIZ DCT MAVAR DCT BITLA UN137 SKP UM749 ROPOX
Aircraft B77W/H-SDE1E2E3FGHIJ2J3J4J5M1RWXY/LB1D1

Departure

Time 2026-04-14 07:55
Airport Frankfurt Main Airport (EDDF)

Arrival

Time 2026-04-14 09:55
Airport Athens Eleftherios Venizelos International Airport (LGAV)
Time Latitude Longitude Altitude Speed Heading
2026-04-14 07:04 50.04814 8.58460 370 ft 0 kts 159°
2026-04-14 07:04 50.04814 8.58459 370 ft 0 kts 159°
2026-04-14 07:15 50.04814 8.58460 369 ft 0 kts 159°
2026-04-14 07:39 50.04814 8.58459 370 ft 0 kts 159°
2026-04-14 07:40 50.04835 8.58447 370 ft 4 kts 159°
2026-04-14 07:40 50.04860 8.58433 370 ft 4 kts 169°
2026-04-14 07:40 50.04884 8.58435 370 ft 4 kts 214°
2026-04-14 07:40 50.04898 8.58461 375 ft 1 kts 249°
2026-04-14 07:41 50.04907 8.58496 370 ft 4 kts 249°
2026-04-14 07:41 50.04909 8.58508 372 ft 0 kts 249°
2026-04-14 07:44 50.04903 8.58483 370 ft 7 kts 249°
2026-04-14 07:44 50.04885 8.58407 370 ft 8 kts 249°
2026-04-14 07:45 50.04866 8.58328 374 ft 8 kts 249°
2026-04-14 07:45 50.04846 8.58245 371 ft 8 kts 250°
2026-04-14 07:45 50.04824 8.58150 374 ft 12 kts 250°
2026-04-14 07:45 50.04778 8.58003 373 ft 16 kts 232°
2026-04-14 07:46 50.04705 8.57873 374 ft 16 kts 240°
2026-04-14 07:46 50.04662 8.57713 377 ft 16 kts 249°
2026-04-14 07:46 50.04623 8.57551 373 ft 16 kts 249°
2026-04-14 07:46 50.04583 8.57388 375 ft 16 kts 249°
2026-04-14 07:47 50.04545 8.57225 371 ft 16 kts 250°
2026-04-14 07:47 50.04507 8.57062 372 ft 16 kts 249°
2026-04-14 07:47 50.04467 8.56900 373 ft 16 kts 249°
2026-04-14 07:47 50.04429 8.56737 375 ft 16 kts 250°
2026-04-14 07:48 50.04391 8.56575 374 ft 16 kts 250°
2026-04-14 07:48 50.04352 8.56412 371 ft 16 kts 250°
2026-04-14 07:48 50.04313 8.56250 374 ft 16 kts 250°
2026-04-14 07:48 50.04268 8.56059 374 ft 22 kts 250°
2026-04-14 07:49 50.04210 8.55817 373 ft 24 kts 250°
2026-04-14 07:49 50.04151 8.55571 377 ft 24 kts 249°
2026-04-14 07:49 50.04092 8.55326 374 ft 24 kts 250°
2026-04-14 07:49 50.04033 8.55080 374 ft 24 kts 250°
2026-04-14 07:50 50.03975 8.54835 376 ft 24 kts 249°
2026-04-14 07:50 50.03915 8.54590 371 ft 24 kts 249°
2026-04-14 07:50 50.03876 8.54428 373 ft 24 kts 248°
2026-04-14 07:50 50.03795 8.54199 377 ft 24 kts 245°
2026-04-14 07:51 50.03716 8.53875 375 ft 24 kts 250°
2026-04-14 07:51 50.03677 8.53708 374 ft 24 kts 250°
2026-04-14 07:51 50.03617 8.53464 370 ft 24 kts 249°
2026-04-14 07:51 50.03558 8.53219 372 ft 24 kts 250°
2026-04-14 07:52 50.03503 8.52990 374 ft 18 kts 249°
2026-04-14 07:52 50.03464 8.52834 376 ft 5 kts 248°
2026-04-14 07:52 50.03457 8.52807 371 ft 0 kts 248°
2026-04-14 07:53 50.03445 8.52761 372 ft 12 kts 248°
2026-04-14 07:53 50.03405 8.52649 376 ft 12 kts 232°
2026-04-14 07:54 50.03334 8.52588 377 ft 12 kts 184°
2026-04-14 07:54 50.03245 8.52589 376 ft 14 kts 179°
2026-04-14 07:54 50.02934 8.52592 373 ft 86 kts 180°
2026-04-14 07:54 50.02077 8.52607 376 ft 161 kts 179°
2026-04-14 07:55 50.00844 8.52561 900 ft 173 kts 182°
2026-04-14 07:55 49.99616 8.52549 1761 ft 181 kts 180°
2026-04-14 07:55 49.98325 8.52563 2400 ft 200 kts 178°
2026-04-14 07:55 49.96894 8.53040 2620 ft 224 kts 146°
2026-04-14 07:56 49.95854 8.54842 3271 ft 224 kts 116°
2026-04-14 07:56 49.95081 8.57000 3856 ft 232 kts 116°
2026-04-14 07:56 49.94306 8.59165 3990 ft 232 kts 112°
2026-04-14 07:56 49.93965 8.61638 4028 ft 247 kts 89°
2026-04-14 07:57 49.93910 8.64395 4387 ft 263 kts 90°
2026-04-14 07:57 49.93799 8.67250 5342 ft 265 kts 95°
2026-04-14 07:57 49.93175 8.69964 6087 ft 276 kts 127°
2026-04-14 07:57 49.91721 8.71903 6876 ft 278 kts 146°
2026-04-14 07:58 49.90112 8.73608 7691 ft 282 kts 145°
2026-04-14 07:58 49.88548 8.75426 8548 ft 282 kts 136°
2026-04-14 07:58 49.87438 8.77959 9175 ft 288 kts 117°
2026-04-14 07:58 49.86507 8.80747 9977 ft 293 kts 119°
2026-04-14 07:59 49.85520 8.83548 10719 ft 302 kts 120°
2026-04-14 07:59 49.84449 8.86514 10989 ft 330 kts 121°
2026-04-14 07:59 49.83277 8.89737 11216 ft 358 kts 121°
2026-04-14 07:59 49.82017 8.93206 11706 ft 377 kts 121°
2026-04-14 08:00 49.80712 8.96799 12577 ft 387 kts 121°
2026-04-14 08:00 49.79383 9.00456 13614 ft 393 kts 121°
2026-04-14 08:00 49.78033 9.04161 14644 ft 398 kts 121°
2026-04-14 08:00 49.76666 9.07910 15733 ft 401 kts 120°
2026-04-14 08:01 49.75566 9.11874 16695 ft 407 kts 107°
2026-04-14 08:01 49.74958 9.16195 17568 ft 411 kts 104°
2026-04-14 08:01 49.74014 9.20334 18239 ft 417 kts 122°
2026-04-14 08:01 49.72187 9.23808 19057 ft 418 kts 136°
2026-04-14 08:02 49.70140 9.27005 19959 ft 421 kts 135°
2026-04-14 08:02 49.68150 9.30286 20754 ft 426 kts 134°
2026-04-14 08:02 49.66165 9.33723 21505 ft 432 kts 133°
2026-04-14 08:02 49.64168 9.37225 22247 ft 438 kts 133°
2026-04-14 08:03 49.62000 9.40546 22978 ft 442 kts 140°
2026-04-14 08:03 49.59602 9.43457 23711 ft 446 kts 146°
2026-04-14 08:03 49.56966 9.45984 24314 ft 449 kts 150°
2026-04-14 08:03 49.54232 9.48427 24839 ft 457 kts 151°
2026-04-14 08:04 49.51471 9.50901 25455 ft 460 kts 150°
2026-04-14 08:04 49.48708 9.53398 26145 ft 461 kts 150°
2026-04-14 08:04 49.45938 9.55920 26815 ft 463 kts 150°
2026-04-14 08:04 49.43162 9.58454 27411 ft 467 kts 150°
2026-04-14 08:05 49.40360 9.61013 27954 ft 470 kts 150°
2026-04-14 08:05 49.37534 9.63587 28508 ft 474 kts 150°
2026-04-14 08:05 49.34752 9.66361 29002 ft 478 kts 145°
2026-04-14 08:05 49.32140 9.69536 29480 ft 482 kts 140°
2026-04-14 08:06 49.29725 9.73132 29938 ft 486 kts 136°
2026-04-14 08:06 49.27351 9.76839 30347 ft 488 kts 136°
2026-04-14 08:06 49.24972 9.80542 30766 ft 489 kts 136°
2026-04-14 08:06 49.22584 9.84229 31303 ft 486 kts 136°
2026-04-14 08:07 49.20231 9.87833 31758 ft 487 kts 136°
2026-04-14 08:07 49.17794 9.91544 32128 ft 489 kts 136°
2026-04-14 08:07 49.15379 9.95208 32499 ft 491 kts 136°
2026-04-14 08:07 49.12980 9.98842 32889 ft 491 kts 136°
2026-04-14 08:08 49.10555 10.02515 33284 ft 492 kts 136°
2026-04-14 08:08 49.08123 10.06195 33666 ft 493 kts 136°
2026-04-14 08:08 49.05678 10.09880 34006 ft 495 kts 137°
2026-04-14 08:08 49.03175 10.13483 34331 ft 495 kts 138°
2026-04-14 08:09 49.00630 10.17013 34699 ft 494 kts 139°
2026-04-14 08:09 48.98107 10.20512 35316 ft 487 kts 139°
2026-04-14 08:09 48.95623 10.23990 35786 ft 485 kts 138°
2026-04-14 08:09 48.93140 10.27487 36021 ft 488 kts 138°
2026-04-14 08:10 48.90643 10.31010 36183 ft 491 kts 138°
2026-04-14 08:10 48.88138 10.34541 36509 ft 490 kts 138°
2026-04-14 08:10 48.85648 10.38044 36956 ft 487 kts 138°
2026-04-14 08:10 48.83162 10.41540 37150 ft 488 kts 137°
2026-04-14 08:11 48.80773 10.45232 37143 ft 489 kts 133°
2026-04-14 08:11 48.76147 10.52803 37114 ft 489 kts 134°
2026-04-14 08:12 48.71502 10.60262 37115 ft 484 kts 135°
2026-04-14 08:12 48.66825 10.67544 37104 ft 481 kts 135°
2026-04-14 08:13 48.62201 10.74850 37107 ft 481 kts 134°
2026-04-14 08:13 48.57636 10.82155 37102 ft 481 kts 134°
2026-04-14 08:14 48.53040 10.89520 37100 ft 483 kts 134°
2026-04-14 08:14 48.48426 10.96885 37108 ft 484 kts 135°
2026-04-14 08:15 48.43747 11.04189 37103 ft 484 kts 135°
2026-04-14 08:15 48.39052 11.11462 37106 ft 485 kts 135°
2026-04-14 08:16 48.34358 11.18740 37094 ft 485 kts 135°
2026-04-14 08:16 48.29661 11.26012 37100 ft 484 kts 136°
2026-04-14 08:17 48.25328 11.33738 37099 ft 485 kts 126°
2026-04-14 08:17 48.21879 11.42431 37105 ft 485 kts 121°
2026-04-14 08:18 48.18546 11.51224 37096 ft 484 kts 121°
2026-04-14 08:18 48.15204 11.59914 37089 ft 484 kts 122°
2026-04-14 08:19 48.11824 11.68609 37103 ft 483 kts 122°
2026-04-14 08:19 48.08439 11.77279 37098 ft 482 kts 122°
2026-04-14 08:20 48.05050 11.85936 37097 ft 482 kts 122°
2026-04-14 08:20 48.01658 11.94576 37100 ft 482 kts 122°
2026-04-14 08:21 47.98262 12.03205 37092 ft 482 kts 122°
2026-04-14 08:21 47.94781 12.11734 37088 ft 480 kts 127°
2026-04-14 08:22 47.90438 12.19248 37094 ft 478 kts 138°
2026-04-14 08:22 47.85388 12.25655 37084 ft 477 kts 142°
2026-04-14 08:23 47.80268 12.31947 37090 ft 477 kts 142°
2026-04-14 08:23 47.75169 12.38281 37078 ft 478 kts 142°
2026-04-14 08:24 47.70107 12.44585 37077 ft 478 kts 142°
2026-04-14 08:24 47.65002 12.50925 37075 ft 479 kts 142°
2026-04-14 08:25 47.60105 12.57621 37075 ft 480 kts 135°
2026-04-14 08:25 47.55528 12.64822 37063 ft 480 kts 135°
2026-04-14 08:26 47.50960 12.72019 37052 ft 479 kts 135°
2026-04-14 08:26 47.46385 12.79153 37064 ft 477 kts 135°
2026-04-14 08:27 47.41806 12.86248 37065 ft 476 kts 136°
2026-04-14 08:27 47.37232 12.93310 37051 ft 475 kts 136°
2026-04-14 08:28 47.32663 13.00346 37049 ft 475 kts 136°
2026-04-14 08:28 47.28123 13.07320 37011 ft 474 kts 136°
2026-04-14 08:29 47.23554 13.14321 37011 ft 474 kts 136°
2026-04-14 08:29 47.18989 13.21298 37017 ft 473 kts 136°
2026-04-14 08:30 47.14421 13.28253 37026 ft 472 kts 136°
2026-04-14 08:30 47.09854 13.35198 37017 ft 473 kts 136°
2026-04-14 08:31 47.05276 13.42143 37017 ft 474 kts 136°
2026-04-14 08:31 46.98388 13.52551 37012 ft 475 kts 136°
2026-04-14 08:32 46.93786 13.59482 37020 ft 475 kts 136°
2026-04-14 08:32 46.89178 13.66404 36998 ft 474 kts 136°
2026-04-14 08:33 46.84570 13.73306 37021 ft 475 kts 136°
2026-04-14 08:33 46.79954 13.80205 37028 ft 475 kts 136°
2026-04-14 08:34 46.75361 13.87051 37025 ft 475 kts 136°
2026-04-14 08:34 46.70736 13.93927 37024 ft 475 kts 136°
2026-04-14 08:35 46.66108 14.00788 37026 ft 475 kts 136°
2026-04-14 08:35 46.61469 14.07650 37046 ft 475 kts 136°
2026-04-14 08:36 46.56831 14.14492 37045 ft 475 kts 136°
2026-04-14 08:36 46.52180 14.21333 37042 ft 475 kts 136°
2026-04-14 08:37 46.47533 14.28153 37044 ft 475 kts 137°
2026-04-14 08:37 46.42891 14.34948 37041 ft 474 kts 137°
2026-04-14 08:38 46.38249 14.41724 37038 ft 473 kts 137°
2026-04-14 08:38 46.33610 14.48485 37042 ft 473 kts 137°
2026-04-14 08:39 46.28974 14.55223 37037 ft 472 kts 137°
2026-04-14 08:39 46.24342 14.61932 37039 ft 472 kts 137°
2026-04-14 08:40 46.20487 14.67505 37050 ft 471 kts 137°
2026-04-14 08:40 46.15850 14.74190 37042 ft 471 kts 137°
2026-04-14 08:41 46.11212 14.80862 37038 ft 470 kts 137°
2026-04-14 08:41 46.06578 14.87512 37033 ft 470 kts 137°
2026-04-14 08:42 46.01943 14.94144 37048 ft 470 kts 137°
2026-04-14 08:42 45.97298 15.00775 37045 ft 471 kts 137°
2026-04-14 08:43 45.92698 15.07328 37047 ft 470 kts 137°
2026-04-14 08:43 45.88017 15.13977 37049 ft 470 kts 137°
2026-04-14 08:44 45.83365 15.20569 37045 ft 470 kts 137°
2026-04-14 08:44 45.78733 15.27116 37053 ft 471 kts 137°
2026-04-14 08:45 45.74063 15.33701 37056 ft 472 kts 137°
2026-04-14 08:45 45.69378 15.40289 37044 ft 472 kts 137°
2026-04-14 08:46 45.64682 15.46877 37044 ft 473 kts 137°
2026-04-14 08:46 45.59988 15.53448 37036 ft 473 kts 137°
2026-04-14 08:47 45.55282 15.60017 37038 ft 473 kts 137°
2026-04-14 08:47 45.50577 15.66570 37037 ft 472 kts 137°
2026-04-14 08:48 45.45899 15.73069 37028 ft 472 kts 137°
2026-04-14 08:48 45.41177 15.79611 37027 ft 473 kts 137°
2026-04-14 08:49 45.36463 15.86129 37027 ft 473 kts 137°
2026-04-14 08:49 45.31739 15.92644 37028 ft 473 kts 137°
2026-04-14 08:50 45.27019 15.99137 37023 ft 472 kts 137°
2026-04-14 08:50 45.22295 16.05620 37018 ft 473 kts 138°
2026-04-14 08:51 45.17555 16.12108 37013 ft 474 kts 138°
2026-04-14 08:51 45.12813 16.18584 37016 ft 474 kts 138°
2026-04-14 08:52 45.08059 16.25060 37034 ft 474 kts 138°
2026-04-14 08:52 45.03324 16.31494 37024 ft 475 kts 138°
2026-04-14 08:53 44.98547 16.37970 37029 ft 476 kts 138°
2026-04-14 08:53 44.93769 16.44433 37030 ft 476 kts 138°
2026-04-14 08:54 44.88981 16.50893 37023 ft 476 kts 138°
2026-04-14 08:54 44.84187 16.57345 37001 ft 476 kts 138°
2026-04-14 08:55 44.79395 16.63778 37009 ft 476 kts 139°
2026-04-14 08:55 44.74600 16.70200 37004 ft 476 kts 139°
2026-04-14 08:56 44.69804 16.76609 37002 ft 476 kts 138°
2026-04-14 08:56 44.65007 16.83002 37001 ft 475 kts 139°
2026-04-14 08:57 44.60201 16.89393 36997 ft 476 kts 138°
2026-04-14 08:57 44.55399 16.95763 37007 ft 477 kts 139°
2026-04-14 08:58 44.50558 17.02169 36998 ft 480 kts 139°
2026-04-14 08:58 44.45737 17.08534 36987 ft 480 kts 138°
2026-04-14 08:59 44.40881 17.14930 36981 ft 482 kts 139°
2026-04-14 08:59 44.35940 17.21419 36985 ft 492 kts 139°
2026-04-14 09:00 44.30928 17.27986 36992 ft 495 kts 139°
2026-04-14 09:00 44.25898 17.34563 36973 ft 496 kts 139°
2026-04-14 09:01 44.20859 17.41141 36967 ft 496 kts 139°
2026-04-14 09:01 44.15816 17.47703 36978 ft 496 kts 139°
2026-04-14 09:02 44.10763 17.54260 36985 ft 497 kts 139°
2026-04-14 09:02 44.05709 17.60802 36978 ft 493 kts 139°
2026-04-14 09:03 44.00755 17.67206 36969 ft 482 kts 139°
2026-04-14 09:03 43.95851 17.73526 36983 ft 480 kts 139°
2026-04-14 09:04 43.90946 17.79826 36995 ft 481 kts 139°
2026-04-14 09:04 43.86022 17.86137 37006 ft 483 kts 139°
2026-04-14 09:05 43.81081 17.92459 36993 ft 484 kts 140°
2026-04-14 09:05 43.76131 17.98776 37003 ft 485 kts 140°
2026-04-14 09:06 43.71170 18.05096 36998 ft 485 kts 140°
2026-04-14 09:06 43.66206 18.11404 37017 ft 484 kts 140°
2026-04-14 09:07 43.61274 18.17655 37009 ft 484 kts 140°
2026-04-14 09:07 43.56315 18.23926 37018 ft 483 kts 140°
2026-04-14 09:08 43.51353 18.30185 37017 ft 483 kts 140°
2026-04-14 09:08 43.46395 18.36424 37019 ft 482 kts 140°
2026-04-14 09:09 43.41435 18.42651 37026 ft 482 kts 140°
2026-04-14 09:09 43.36469 18.48871 37021 ft 483 kts 140°
2026-04-14 09:10 43.31496 18.55088 37020 ft 484 kts 140°
2026-04-14 09:10 43.26545 18.61263 37016 ft 484 kts 140°
2026-04-14 09:11 43.21559 18.67464 37025 ft 483 kts 140°
2026-04-14 09:11 43.16570 18.73656 37029 ft 484 kts 140°
2026-04-14 09:12 43.11574 18.79843 37022 ft 485 kts 141°
2026-04-14 09:12 43.06565 18.86031 37034 ft 485 kts 141°
2026-04-14 09:13 43.01549 18.92214 37029 ft 486 kts 141°
2026-04-14 09:13 42.96529 18.98391 37031 ft 486 kts 141°
2026-04-14 09:14 42.91536 19.04517 37033 ft 485 kts 141°
2026-04-14 09:14 42.86513 19.10667 37034 ft 486 kts 141°
2026-04-14 09:15 42.81479 19.16815 37023 ft 486 kts 141°
2026-04-14 09:15 42.76448 19.22947 37030 ft 486 kts 141°
2026-04-14 09:16 42.71405 19.29081 37038 ft 486 kts 142°
2026-04-14 09:16 42.66363 19.35193 37037 ft 486 kts 142°
2026-04-14 09:17 42.61326 19.41297 37030 ft 486 kts 142°
2026-04-14 09:17 42.56265 19.47401 37030 ft 487 kts 142°
2026-04-14 09:18 42.51196 19.53507 37025 ft 487 kts 142°
2026-04-14 09:18 42.46119 19.59614 37037 ft 488 kts 142°
2026-04-14 09:19 42.41045 19.65701 37037 ft 487 kts 142°
2026-04-14 09:19 42.35961 19.71784 37046 ft 488 kts 142°
2026-04-14 09:20 42.30876 19.77857 37044 ft 487 kts 142°
2026-04-14 09:20 42.25824 19.83878 37043 ft 487 kts 142°
2026-04-14 09:21 42.20803 19.89850 37023 ft 486 kts 143°
2026-04-14 09:21 42.15735 19.95858 37051 ft 485 kts 143°
2026-04-14 09:22 42.10654 20.01870 37034 ft 486 kts 143°
2026-04-14 09:22 42.05575 20.07868 37050 ft 486 kts 143°
2026-04-14 09:23 41.96974 20.17996 37045 ft 484 kts 143°
2026-04-14 09:23 41.83298 20.34023 37069 ft 482 kts 143°
2026-04-14 09:24 41.64950 20.55325 37168 ft 483 kts 145°
2026-04-14 09:24 41.57584 20.63069 37079 ft 486 kts 147°
2026-04-14 09:25 41.39272 20.82206 37090 ft 483 kts 147°
2026-04-14 09:25 41.23670 20.98507 37076 ft 480 kts 147°
2026-04-14 09:26 41.10471 21.12217 37064 ft 479 kts 147°
2026-04-14 09:26 41.01298 21.21702 37208 ft 476 kts 148°
2026-04-14 09:26 40.90807 21.32506 37225 ft 479 kts 148°
2026-04-14 09:27 40.82937 21.42053 37250 ft 487 kts 139°
2026-04-14 09:27 40.73023 21.55894 37139 ft 490 kts 139°
2026-04-14 09:28 40.54132 21.81755 37208 ft 490 kts 140°
2026-04-14 09:28 40.35072 22.07614 37173 ft 494 kts 140°
2026-04-14 09:29 40.15905 22.33396 37155 ft 494 kts 141°
2026-04-14 09:29 39.99950 22.54687 37178 ft 494 kts 141°
2026-04-14 09:30 39.83908 22.75941 37206 ft 497 kts 141°
2026-04-14 09:30 39.64362 23.01638 37137 ft 501 kts 142°
2026-04-14 09:31 39.44704 23.27264 37223 ft 501 kts 143°
2026-04-14 09:31 39.24944 23.52804 37169 ft 504 kts 143°
2026-04-14 09:32 39.14854 23.61872 37166 ft 469 kts 172°
2026-04-14 09:32 39.11713 23.62732 37159 ft 455 kts 182°
2026-04-14 09:32 39.05328 23.63515 35773 ft 464 kts 183°
2026-04-14 09:33 39.02119 23.63950 34963 ft 462 kts 182°
2026-04-14 09:33 38.98926 23.64413 34105 ft 462 kts 182°
2026-04-14 09:33 38.95743 23.64885 33029 ft 462 kts 182°
2026-04-14 09:33 38.92617 23.65352 32000 ft 450 kts 182°
2026-04-14 09:34 38.89500 23.65819 31021 ft 451 kts 182°
2026-04-14 09:34 38.86397 23.66277 30307 ft 448 kts 181°
2026-04-14 09:34 38.83297 23.66733 29502 ft 446 kts 181°
2026-04-14 09:34 38.80224 23.67185 28788 ft 442 kts 181°
2026-04-14 09:35 38.77208 23.67629 28109 ft 438 kts 181°
2026-04-14 09:35 38.74193 23.68073 27431 ft 435 kts 181°
2026-04-14 09:35 38.71194 23.68512 26777 ft 432 kts 181°
2026-04-14 09:35 38.68215 23.68946 26114 ft 430 kts 180°
2026-04-14 09:36 38.65260 23.69378 25479 ft 428 kts 180°
2026-04-14 09:36 38.62310 23.69811 24827 ft 426 kts 180°
2026-04-14 09:36 38.59368 23.70242 24183 ft 425 kts 179°
2026-04-14 09:36 38.56427 23.70671 23500 ft 425 kts 179°
2026-04-14 09:37 38.53552 23.71090 22796 ft 423 kts 179°
2026-04-14 09:37 38.50633 23.71516 22124 ft 420 kts 179°
2026-04-14 09:37 38.47734 23.71939 21488 ft 417 kts 178°
2026-04-14 09:37 38.44858 23.72359 20881 ft 414 kts 178°
2026-04-14 09:38 38.42002 23.72775 20247 ft 412 kts 178°
2026-04-14 09:38 38.39163 23.73188 19641 ft 410 kts 177°
2026-04-14 09:38 38.36341 23.73598 19046 ft 407 kts 177°
2026-04-14 09:38 38.33528 23.74006 18431 ft 406 kts 176°
2026-04-14 09:39 38.30724 23.74413 17748 ft 404 kts 176°
2026-04-14 09:39 38.27943 23.74817 17111 ft 401 kts 176°
2026-04-14 09:39 38.25214 23.75213 16499 ft 398 kts 176°
2026-04-14 09:39 38.22471 23.75609 15893 ft 396 kts 176°
2026-04-14 09:40 38.19719 23.75998 15311 ft 387 kts 178°
2026-04-14 09:40 38.17091 23.75785 14704 ft 376 kts 196°
2026-04-14 09:40 38.14719 23.74589 14182 ft 371 kts 211°
2026-04-14 09:40 38.12536 23.72792 13536 ft 368 kts 214°
2026-04-14 09:41 38.10419 23.70971 12919 ft 367 kts 214°
2026-04-14 09:41 38.08352 23.69197 12309 ft 353 kts 214°
2026-04-14 09:41 38.06394 23.67529 11761 ft 330 kts 214°
2026-04-14 09:41 38.04480 23.65907 11265 ft 332 kts 214°
2026-04-14 09:42 38.02552 23.64281 10999 ft 331 kts 214°
2026-04-14 09:42 38.00645 23.62680 10773 ft 325 kts 214°
2026-04-14 09:42 37.98794 23.61127 10617 ft 314 kts 214°
2026-04-14 09:42 37.97004 23.59628 10483 ft 304 kts 214°
2026-04-14 09:43 37.95268 23.58175 10346 ft 294 kts 214°
2026-04-14 09:43 37.93588 23.56772 10219 ft 284 kts 214°
2026-04-14 09:43 37.91964 23.55417 10104 ft 275 kts 214°
2026-04-14 09:43 37.90392 23.54105 10006 ft 265 kts 214°
2026-04-14 09:44 37.88872 23.52836 9795 ft 260 kts 214°
2026-04-14 09:44 37.87371 23.51585 9516 ft 257 kts 215°
2026-04-14 09:44 37.85896 23.50356 9321 ft 250 kts 215°
2026-04-14 09:44 37.84463 23.49163 9168 ft 243 kts 215°
2026-04-14 09:45 37.83072 23.48007 8988 ft 236 kts 215°
2026-04-14 09:45 37.81696 23.46862 8604 ft 239 kts 216°
2026-04-14 09:45 37.80222 23.45885 8126 ft 243 kts 196°
2026-04-14 09:45 37.78519 23.45951 7798 ft 251 kts 165°
2026-04-14 09:46 37.77018 23.47108 7553 ft 262 kts 136°
2026-04-14 09:46 37.76081 23.49153 7278 ft 281 kts 106°
2026-04-14 09:46 37.75825 23.51609 6979 ft 283 kts 96°
2026-04-14 09:46 37.75657 23.54105 6673 ft 287 kts 96°
2026-04-14 09:47 37.75484 23.56638 6251 ft 291 kts 97°
2026-04-14 09:47 37.75293 23.59186 5937 ft 290 kts 97°
2026-04-14 09:47 37.75095 23.61703 5659 ft 286 kts 97°
2026-04-14 09:47 37.74903 23.64122 5326 ft 267 kts 98°
2026-04-14 09:48 37.74723 23.66369 5044 ft 248 kts 98°
2026-04-14 09:48 37.74552 23.68486 4805 ft 240 kts 98°
2026-04-14 09:48 37.74382 23.70566 4535 ft 237 kts 98°
2026-04-14 09:48 37.74214 23.72622 4291 ft 233 kts 98°
2026-04-14 09:49 37.74067 23.74594 4241 ft 219 kts 93°
2026-04-14 09:49 37.74456 23.76488 4104 ft 230 kts 59°
2026-04-14 09:49 37.75505 23.77962 3999 ft 222 kts 45°
2026-04-14 09:49 37.76614 23.79265 3892 ft 213 kts 42°
2026-04-14 09:50 37.77736 23.80414 3766 ft 202 kts 39°
2026-04-14 09:50 37.78822 23.81458 3530 ft 189 kts 39°
2026-04-14 09:50 37.79808 23.82392 3337 ft 171 kts 39°
2026-04-14 09:50 37.80714 23.83252 3148 ft 158 kts 39°
2026-04-14 09:51 37.81591 23.84087 2954 ft 159 kts 39°
2026-04-14 09:51 37.82467 23.84920 2753 ft 156 kts 39°
2026-04-14 09:51 37.83325 23.85735 2521 ft 153 kts 39°
2026-04-14 09:51 37.84170 23.86539 2335 ft 152 kts 39°
2026-04-14 09:52 37.85016 23.87344 2130 ft 151 kts 39°
2026-04-14 09:52 37.85845 23.88133 1906 ft 148 kts 39°
2026-04-14 09:52 37.86678 23.88925 1722 ft 151 kts 40°
2026-04-14 09:52 37.87512 23.89718 1525 ft 149 kts 39°
2026-04-14 09:53 37.88338 23.90503 1305 ft 146 kts 39°
2026-04-14 09:53 37.89155 23.91284 1134 ft 149 kts 39°
2026-04-14 09:53 37.89968 23.92056 926 ft 143 kts 39°
2026-04-14 09:53 37.90750 23.92799 733 ft 140 kts 39°
2026-04-14 09:54 37.91530 23.93551 596 ft 143 kts 39°
2026-04-14 09:54 37.92327 23.94279 404 ft 138 kts 39°
2026-04-14 09:54 37.93080 23.95012 300 ft 130 kts 36°
2026-04-14 09:54 37.93688 23.95592 284 ft 84 kts 38°
2026-04-14 09:55 37.94049 23.95938 287 ft 32 kts 30°
2026-04-14 09:55 37.94229 23.96003 293 ft 12 kts
2026-04-14 09:55 37.94237 23.96005 298 ft 0 kts
2026-04-14 09:56 37.94242 23.96005 298 ft 5 kts
2026-04-14 09:56 37.94285 23.96007 301 ft 6 kts 352°
2026-04-14 09:57 37.94322 23.95978 305 ft 6 kts 309°
2026-04-14 09:57 37.94324 23.95925 304 ft 6 kts 246°
2026-04-14 09:57 37.94286 23.95881 306 ft 12 kts 215°
2026-04-14 09:57 37.94199 23.95801 304 ft 16 kts 217°
2026-04-14 09:58 37.94110 23.95716 305 ft 16 kts 217°
2026-04-14 09:58 37.94020 23.95632 305 ft 16 kts 216°
2026-04-14 09:58 37.93930 23.95548 305 ft 16 kts 218°
2026-04-14 09:58 37.93841 23.95462 305 ft 16 kts 217°
2026-04-14 09:59 37.93751 23.95377 304 ft 16 kts 217°
2026-04-14 09:59 37.93663 23.95293 306 ft 16 kts 217°
2026-04-14 09:59 37.93573 23.95209 306 ft 16 kts 216°
2026-04-14 09:59 37.93482 23.95125 307 ft 16 kts 216°
2026-04-14 10:00 37.93397 23.95034 307 ft 16 kts 237°
2026-04-14 10:00 37.93417 23.94903 307 ft 16 kts 305°
2026-04-14 10:00 37.93458 23.94834 308 ft 7 kts 307°
2026-04-14 10:00 37.93475 23.94805 308 ft 3 kts 307°
2026-04-14 10:01 37.93488 23.94784 308 ft 4 kts 310°
2026-04-14 10:01 37.93501 23.94764 310 ft 0 kts 308°
2026-04-14 10:01 37.93505 23.94758 308 ft 1 kts 308°
2026-04-14 10:01 37.93512 23.94747 310 ft 0 kts 308°